Regional Weather Roundup
Issued by NWS

Home | Current Version | Previous Version | Text Only | Print | Product List | Glossary On
Versions: 1 2 3 4 5 6 7 8 9 10 11 12 13 14 15 16 17 18 19 20 21 22 23 24 25 26 27 28 29 30 31 32 33 34 35 36 37 38 39 40 41 42 43 44 45 46 47 48 49 50
000
ASUS43 KDTX 221510
RWRMI
MICHIGAN HOURLY REGIONAL WEATHER ROUNDUP
NATIONAL WEATHER SERVICE DETROIT/PONTIAC MI
1100 AM EDT TUE AUG 22 2017

NOTE: "FAIR" INDICATES FEW OR NO CLOUDS BELOW 12,000 FEET WITH NO
SIGNIFICANT WEATHER AND/OR OBSTRUCTION TO VISIBILITY.

MIZ047>049-052>055-059>063-066>070-074>076-081>083-221600-
SOUTHEAST LOWER MICHIGAN

CITY           SKY/WX    TMP DP  RH WIND       PRES   REMARKS
ADRIAN         PTSUNNY   74  68  81 W13G21    29.86R
ALMA           CLOUDY    72  67  84 W9        29.76S
ANN ARBOR      CLOUDY    73  69  87 SW15      29.82R
BAD AXE        CLOUDY    70  68  91 SW13G22   29.71F
CARO           MIX PCPN  70  68  92 SW12G17   29.73F
DETROIT CITY   PTSUNNY   75  68  78 W13       29.80S
DETROIT        CLOUDY    75  69  81 SW16      29.81F
FLINT          LGT RAIN  71  68  90 SW12      29.77S
GROSSE ILE     CLOUDY    73  68  84 W10G18    29.81R
HILLSDALE      CLOUDY    70  64  83 W13G24    29.85S
HOWELL         CLOUDY    71  68  90 SW9G18    29.80R

CITY           SKY/WX    TMP DP  RH WIND       PRES   REMARKS
JACKSON        CLOUDY    72  67  84 SW14      29.83R
LAMBERTVILLE   CLOUDY    73  68  84 W8G20     29.84R
LANSING        CLOUDY    73  68  84 W15       29.79S
LAPEER         CLOUDY    72  69  91 W10G16    29.76F
MASON          CLOUDY    72  68  87 SW9       29.81R
MONROE         CLOUDY    74  69  85 W13       29.83R
MT. CLEMENS    LGT RAIN  74  69  84 SW13      29.77F
PONTIAC        CLOUDY    72  70  93 SW9       29.78F
PORT HOPE        N/A     71  68  90 W9G17     29.67F
PORT HURON     RAIN      73  68  83 SW6       29.77F
TRI CITIES     CLOUDY    73  71  93 W15       29.74S
MIDLAND        CLOUDY    73  69  88 W8        29.73S
TROY           DRIZZLE   73  69  85 SW10G16   29.81S
SAGINAW HB     CLOUDY    70  68  94 SW9       29.73S
$$
MIZ043>046-050>051-056>058-064>065-071>073-077>080-221600-
SOUTHWEST LOWER MICHIGAN

CITY           SKY/WX    TMP DP  RH WIND       PRES   REMARKS
BATTLE CREEK   CLOUDY    72  69  90 W9        29.84R
BENTON HARBOR  CLOUDY    74  68  81 W17       29.84F
BIG RAPIDS     CLOUDY    69  62  80 W13G21    29.77R
COLDWATER      CLOUDY    71  70  98 SW12G20   29.85S
FREMONT        CLOUDY    69  65  88 W10G21    29.79R
HOLLAND        CLOUDY    73  65  75 W17G26    29.83R
GRAND RAPIDS   CLOUDY    74  66  76 W21       29.80R
IONIA          CLOUDY    73  68  83 W15       29.78S
KALAMAZOO      CLOUDY    74  67  78 W14       29.83S
LUDINGTON      CLOUDY    69  64  83 W10G17    29.77S
MARSHALL       CLOUDY    71  70  98 SW9       29.82F
MOUNT PLEASANT CLOUDY    74  65  73 W9G22     29.74S
MUSKEGON       CLOUDY    72  64  76 W17G25    29.80R
SOUTH HAVEN    CLOUDY    75  66  75 W15G22    29.84R
$$
MIZ016>042-221600-
NORTHERN LOWER MICHIGAN

CITY           SKY/WX    TMP DP  RH WIND       PRES   REMARKS
ALPENA         CLOUDY    74  65  73 W15G21    29.63F
BEAVER ISLAND  CLOUDY    64  58  79 NW13G22   29.72R
BELLAIRE       CLOUDY    62  59  89 NW8G18    29.73R
CADILLAC       LGT RAIN  70  62  77 W15G22    29.76R
CHARLEVOIX     CLOUDY    63  61  94 NW16      29.74R
FRANKFORT      CLOUDY    66  62  86 N10G17    29.77R
GAYLORD        HVY RAIN  66  62  87 W17G25    29.69R FOG
GRAYLING       CLOUDY    70  62  75 W8G16     29.71S
HARBOR SPRINGS RAIN      62  61  95 W13G18    29.69R
HOUGHTON LAKE  CLOUDY    71  62  73 W15G22    29.73S
MANISTEE       CLOUDY    66  61  82 NW15      29.77R
OSCODA         CLOUDY    74  69  81 W17       29.66S
PELLSTON       CLOUDY    63  61  93 NW17G26   29.67R
ROGERS CITY    CLOUDY    72  66  83 SW14G20   29.62F
TRAVERSE CITY  LGT RAIN  64  60  87 NW17      29.74R
$$
MIZ007>008-015-221600-
EASTERN UPPER MICHIGAN

CITY           SKY/WX    TMP DP  RH WIND       PRES   REMARKS
KINROSS        CLOUDY    61  57  87 NW17G28   29.64R
MACKINAC ISLAN CLOUDY    63  63 100 NW16G23   29.65R
NEWBERRY       PTSUNNY   62  58  85 NW15G23   29.69R
S. S. MARIE    CLOUDY    63  57  81 NW14G28   29.63R
MUNISING         N/A     61  58  90 NW18G26   29.75R
$$
MIZ004>006-011>014-085-221600-
CENTRAL UPPER MICHIGAN

CITY           SKY/WX    TMP DP  RH WIND       PRES   REMARKS
MANISTIQUE     MOSUNNY   65  51  61 NW18G30   29.72R
ESCANABA       MOSUNNY   64  55  72 NW16      29.76S
MENOMINEE      PTSUNNY   68  55  63 NW10G16   29.81R
SAWYER-GWINN   PTSUNNY   61  54  77 NW17      29.77S
$$
MIZ001>003-009>011-084-221600-
WESTERN UPPER MICHIGAN

CITY           SKY/WX    TMP DP  RH WIND       PRES   REMARKS
IRON MOUNTAIN  CLOUDY    63  52  67 NW10      29.81R
HOUGHTON       LGT RAIN  62  53  72 W23G30    29.77F
COPPER HARBOR    N/A     62  55  77 N15G25    29.75S
IRONWOOD       PTSUNNY   60  54  80 NW14      29.89S
$$

ABBREVIATIONS USED IN REMARKS
   TC - TEMPERATURE IN CELSIUS
  WCI - WIND CHILL INDEX
   HX - HEAT INDEX
  VSB - VISIBILITY





USA.gov is the U.S. government's official web portal to all federal, state and local government web resources and services.